Date String (YYYY-MM-DD hh:mm:ss) UTC,Instrument flags,absolute air pressure of the measurement (hPa),sample flow rate (lpm),inlet stack bypass flow (lpm),air temperature of the measurement (°C),ambient temperature measured by the external sensor (°C),aerosol sample conditioner tube jacket temperature (°C),OPC LED temperature (°C),internal box temperature (°C),relative humidity of the measurement (%),span deviation,mass concentration of particles derived from Lorenz-Mie calculation of OPC scattering (μg/m³),mass concentration of particles derived from Lorenz-Mie calculation of OPC scattering (μg/m³),mass concentration of particles derived from Lorenz-Mie calculation of OPC scattering (μg/m³)
DateTimeUTC,F1_M11,P_M11,Q1_M11,Q2_M11,T1_M11,T2_M11,T3_M11,T4_M11,T5_M11,U1_M11,ZSPAN_M11,X0_M11,X2_M11,X1_M11
2024-02-11 23:00:00,SystemResetWarning,0828.4,5.01,000.00,019.0,018.6,000.0,027.4,020.6,13.2,0003.2,0009.80,0006.44,0006.17
2024-02-11 23:01:00,SystemResetWarning,0828.4,5.00,000.00,019.0,018.5,000.0,027.4,020.6,12.9,0003.3,0009.79,0006.43,0006.16
2024-02-11 23:02:00,SystemResetWarning,0828.4,5.00,000.00,019.0,018.5,000.0,027.4,020.6,12.8,0003.1,0009.48,0006.45,0006.18
2024-02-11 23:03:00,SystemResetWarning,0828.4,5.00,000.00,019.0,018.5,000.0,027.4,020.6,12.7,0002.2,0009.40,0006.47,0006.20
2024-02-11 23:04:00,SystemResetWarning,0828.5,5.00,000.00,019.0,018.5,000.0,027.4,020.6,12.6,0002.1,0009.72,0006.47,0006.21
2024-02-11 23:05:00,SystemResetWarning,0828.5,5.00,000.00,019.0,018.5,000.0,027.4,020.6,12.9,0002.1,0009.93,0006.49,0006.22
2024-02-11 23:06:00,SystemResetWarning,0828.5,5.01,000.00,019.0,018.5,000.0,027.4,020.6,13.1,0002.2,0010.60,0006.50,0006.22
2024-02-11 23:07:00,SystemResetWarning,0828.5,5.01,000.00,019.0,018.5,000.0,027.4,020.6,13.0,0002.2,0010.48,0006.49,0006.24
2024-02-11 23:08:00,SystemResetWarning,0828.5,5.00,000.00,019.0,018.5,000.0,027.4,020.6,12.7,0002.2,0010.47,0006.49,0006.24
2024-02-11 23:09:00,SystemResetWarning,0828.5,5.00,000.00,018.9,018.5,000.0,027.4,020.5,13.0,0002.4,0010.50,0006.51,0006.25
2024-02-11 23:10:00,SystemResetWarning,0828.5,5.00,000.00,018.9,018.5,000.0,027.4,020.5,12.8,0002.5,0010.63,0006.52,0006.25
2024-02-11 23:11:00,SystemResetWarning,0828.6,4.99,000.00,018.9,018.4,000.0,027.4,020.5,13.1,0002.1,0010.97,0006.50,0006.25
2024-02-11 23:12:00,SystemResetWarning,0828.5,5.00,000.00,018.9,018.4,000.0,027.3,020.5,13.0,0002.0,0010.94,0006.50,0006.25
2024-02-11 23:13:00,SystemResetWarning,0828.6,5.01,000.00,018.9,018.5,000.0,027.3,020.6,13.0,0001.7,0012.01,0006.48,0006.24
2024-02-11 23:14:00,SystemResetWarning,0828.5,5.01,000.00,018.9,018.5,000.0,027.3,020.6,12.6,0002.4,0011.96,0006.47,0006.23
2024-02-11 23:15:00,SystemResetWarning,0828.6,5.00,000.00,018.9,018.5,000.0,027.3,020.5,12.6,0002.0,0011.71,0006.45,0006.20
2024-02-11 23:16:00,SystemResetWarning,0828.5,4.99,000.00,018.9,018.5,000.0,027.3,020.5,12.9,0001.9,0011.47,0006.42,0006.18
2024-02-11 23:17:00,SystemResetWarning,0828.6,4.99,000.00,018.9,018.5,000.0,027.3,020.5,12.9,0002.1,0010.81,0006.40,0006.17
2024-02-11 23:18:00,SystemResetWarning,0828.6,5.00,000.00,018.9,018.5,000.0,027.3,020.5,12.8,0002.0,0010.88,0006.40,0006.15
2024-02-11 23:19:00,SystemResetWarning,0828.6,5.00,000.00,018.9,018.4,000.0,027.3,020.5,12.8,0001.7,0010.90,0006.38,0006.13
2024-02-11 23:20:00,SystemResetWarning,0828.6,5.01,000.00,018.9,018.4,000.0,027.3,020.5,12.8,0001.2,0010.90,0006.34,0006.11
2024-02-11 23:21:00,SystemResetWarning,0828.5,5.01,000.00,018.9,018.4,000.0,027.3,020.5,13.0,0000.8,0010.84,0006.33,0006.10
2024-02-11 23:22:00,SystemResetWarning,0828.6,5.00,000.00,018.9,018.4,000.0,027.3,020.5,13.2,0002.4,0010.21,0006.34,0006.09
2024-02-11 23:23:00,SystemResetWarning,0828.6,4.98,000.00,018.9,018.4,000.0,027.3,020.5,13.1,0000.5,0010.17,0006.33,0006.08
2024-02-11 23:24:00,SystemResetWarning,0828.5,5.00,000.00,018.9,018.4,000.0,027.3,020.5,12.8,0000.0,0009.54,0006.35,0006.09
2024-02-11 23:25:00,SystemResetWarning,0828.5,5.00,000.00,018.9,018.4,000.0,027.3,020.4,12.8,0000.0,0008.97,0006.40,0006.11
2024-02-11 23:26:00,SystemResetWarning,0828.5,5.01,000.00,018.8,018.4,000.0,027.3,020.4,12.8,0000.0,0009.53,0006.44,0006.15
2024-02-11 23:27:00,SystemResetWarning,0828.5,5.01,000.00,018.8,018.4,000.0,027.3,020.4,12.7,0000.0,0009.61,0006.49,0006.19
2024-02-11 23:28:00,SystemResetWarning,0828.5,5.00,000.00,018.8,018.3,000.0,027.2,020.4,12.9,0000.0,0009.71,0006.55,0006.23
2024-02-11 23:29:00,SystemResetWarning,0828.6,5.00,000.00,018.8,018.3,000.0,027.2,020.4,12.9,0000.0,0009.74,0006.62,0006.29
2024-02-11 23:30:00,SystemResetWarning,0828.6,5.00,000.00,018.8,018.3,000.0,027.2,020.4,13.2,0000.0,0010.31,0006.64,0006.31
2024-02-11 23:31:00,SystemResetWarning,0828.5,5.00,000.00,018.8,018.3,000.0,027.2,020.4,13.3,0000.0,0010.46,0006.66,0006.32
2024-02-11 23:32:00,SystemResetWarning,0828.6,5.00,000.00,018.8,018.3,000.0,027.2,020.4,12.9,0000.0,0010.48,0006.67,0006.33
2024-02-11 23:33:00,SystemResetWarning,0828.6,5.00,000.00,018.8,018.3,000.0,027.2,020.4,12.8,0000.0,0010.90,0006.64,0006.33
2024-02-11 23:34:00,SystemResetWarning,0828.5,4.99,000.00,018.8,018.3,000.0,027.2,020.4,12.9,0000.0,0010.98,0006.63,0006.33
2024-02-11 23:35:00,SystemResetWarning,0828.5,5.01,000.00,018.8,018.3,000.0,027.2,020.3,13.0,0000.0,0011.33,0006.64,0006.32
2024-02-11 23:36:00,SystemResetWarning,0828.5,5.01,000.00,018.8,018.3,000.0,027.2,020.3,13.0,0000.0,0011.76,0006.60,0006.32
2024-02-11 23:37:00,SystemResetWarning,0828.5,5.00,000.00,018.8,018.3,000.0,027.2,020.3,13.1,0000.0,0011.23,0006.59,0006.32
2024-02-11 23:38:00,SystemResetWarning,0828.6,4.99,000.00,018.7,018.2,000.0,027.2,020.2,13.2,0000.0,0011.55,0006.57,0006.31
2024-02-11 23:39:00,SystemResetWarning,0828.5,5.00,000.00,018.7,018.2,000.0,027.2,020.3,13.1,0000.0,0012.03,0006.52,0006.27
2024-02-11 23:40:00,SystemResetWarning,0828.5,5.00,000.00,018.7,018.2,000.0,027.1,020.2,13.2,0000.0,0012.64,0006.47,0006.22
2024-02-11 23:41:00,SystemResetWarning,0828.5,5.01,000.00,018.7,018.2,000.0,027.1,020.3,13.4,0000.0,0012.28,0006.45,0006.21
2024-02-11 23:42:00,SystemResetWarning,0828.5,5.01,000.00,018.7,018.2,000.0,027.1,020.2,13.0,0000.0,0011.92,0006.41,0006.20
2024-02-11 23:43:00,SystemResetWarning,0828.5,5.00,000.00,018.7,018.2,000.0,027.1,020.3,13.0,0000.0,0011.90,0006.41,0006.20
2024-02-11 23:44:00,SystemResetWarning,0828.5,5.00,000.00,018.7,018.2,000.0,027.1,020.3,13.0,0000.0,0012.38,0006.51,0006.26
2024-02-11 23:45:00,SystemResetWarning,0828.4,4.99,000.00,018.7,018.2,000.0,027.1,020.2,13.1,0000.0,0012.23,0006.58,0006.31
2024-02-11 23:46:00,SystemResetWarning,0828.4,5.00,000.00,018.7,018.2,000.0,027.1,020.2,13.1,0000.0,0012.14,0006.60,0006.33
2024-02-11 23:47:00,SystemResetWarning,0828.4,5.00,000.00,018.6,018.2,000.0,027.1,020.2,13.2,0000.6,0011.61,0006.66,0006.36
2024-02-11 23:48:00,SystemResetWarning,0828.4,5.01,000.00,018.6,018.1,000.0,027.1,020.2,13.3,0001.3,0012.27,0006.64,0006.35
2024-02-11 23:49:00,SystemResetWarning,0828.5,5.00,000.00,018.6,018.1,000.0,027.1,020.2,13.5,0001.2,0012.68,0006.64,0006.35
2024-02-11 23:50:00,SystemResetWarning,0828.5,5.01,000.00,018.6,018.1,000.0,027.1,020.2,13.5,0000.0,0011.80,0006.66,0006.35
2024-02-11 23:51:00,SystemResetWarning,0828.6,5.00,000.00,018.6,018.1,000.0,027.0,020.2,13.3,0000.0,0011.48,0006.63,0006.34
2024-02-11 23:52:00,SystemResetWarning,0828.5,4.99,000.00,018.6,018.1,000.0,027.0,020.2,13.4,0000.0,0011.44,0006.62,0006.35
2024-02-11 23:53:00,SystemResetWarning,0828.6,5.00,000.00,018.6,018.1,000.0,027.0,020.1,13.4,0001.0,0011.96,0006.64,0006.35
2024-02-11 23:54:00,SystemResetWarning,0828.6,4.99,000.00,018.6,018.1,000.0,027.0,020.1,13.3,0001.8,0012.31,0006.66,0006.35
2024-02-11 23:55:00,SystemResetWarning,0828.6,5.00,000.00,018.5,018.1,000.0,027.0,020.1,13.4,0001.7,0012.10,0006.64,0006.33
2024-02-11 23:56:00,SystemResetWarning,0828.5,5.00,000.00,018.5,018.1,000.0,027.0,020.1,13.3,0001.3,0012.22,0006.60,0006.28
2024-02-11 23:57:00,SystemResetWarning,0828.5,5.00,000.00,018.5,018.1,000.0,027.0,020.1,13.3,0000.2,0012.78,0006.57,0006.26
2024-02-11 23:58:00,SystemResetWarning,0828.5,5.00,000.00,018.5,018.1,000.0,027.0,020.1,13.2,0000.0,0012.79,0006.52,0006.21
2024-02-11 23:59:00,SystemResetWarning,0828.5,5.00,000.00,018.5,018.0,000.0,026.9,020.0,13.4,0000.0,0012.58,0006.50,0006.18
